Wind_Speed
44 44 44 44 41 41 43 43 43 42 40 38 37 36 35 34 34 34 33 33 33 32 32 33 33 34 35 36 36 36 36 37 37 37 36 37 38 38 39 40 40 40 40
43 43 43 43 43 41 40 41 42 43 43 43 40 39 38 37 36 36 36 35 35 35 35 35 35 35 36 38 38 39 39 39 40 41 41 40 39 41 41 42 42 41 41
39 39 41 41 42 42 42 41 42 43 42 43 44 44 42 41 39 38 38 38 38 38 38 38 38 38 39 40 40 40 41 41 42 44 44 44 43 42 41 42 42 42 42
37 37 38 39 40 41 42 43 43 43 44 43 43 43 44 43 42 42 42 41 40 41 41 41 41 41 42 42 43 43 43 44 45 45 46 47 46 44 42 41 42 42 41
36 36 37 38 40 40 41 42 43 43 43 44 44 45 44 45 45 44 43 43 43 43 43 44 44 43 44 45 45 46 46 47 47 46 46 46 45 45 45 43 42 42 42
35 35 35 36 37 39 40 41 41 42 42 43 44 45 45 45 46 46 46 45 45 46 46 47 47 47 48 48 48 48 47 46 47 46 46 45 46 46 46 45 44 43 43
33 34 34 35 35 37 39 41 41 42 42 42 43 44 45 46 46 46 46 47 47 47 48 48 48 48 49 49 49 48 48 48 48 48 47 48 47 47 46 46 45 45 44
33 33 33 34 35 37 38 40 41 42 43 43 44 44 45 46 46 46 46 47 47 47 48 48 49 49 50 50 49 49 50 50 50 50 50 49 48 47 47 46 46 45 45
33 34 34 34 34 36 37 38 40 41 42 43 44 45 46 47 47 48 48 49 49 50 50 50 50 51 52 52 52 52 51 51 51 51 51 50 49 48 48 47 47 46 46
33 34 34 34 35 36 37 38 39 41 42 43 44 45 46 48 49 49 49 50 50 50 52 52 53 53 53 53 53 53 53 53 53 52 51 51 50 49 48 48 47 47 46
32 33 34 35 35 36 38 39 40 41 42 43 44 45 46 47 48 49 50 51 51 52 52 53 53 53 53 53 53 52 52 52 52 52 51 51 50 49 48 48 47 46 46
32 33 34 35 36 36 37 38 39 40 41 41 42 43 44 45 46 47 48 49 49 50 50 50 51 51 51 51 51 51 51 50 50 50 49 49 49 48 47 46 46 45 45
32 32 33 34 35 36 36 37 37 38 39 40 41 42 43 44 45 46 47 47 47 47 47 48 48 48 48 49 49 49 49 49 49 48 48 47 46 46 45 44 44 44 43
30 32 33 34 34 35 35 36 36 37 38 38 39 40 41 42 42 43 44 45 45 45 45 45 46 46 46 47 48 48 48 48 47 46 46 45 44 44 43 43 42 41 40
31 32 33 34 35 36 36 36 37 37 37 37 37 38 39 39 40 41 41 42 43 43 44 44 44 44 44 44 45 45 45 45 44 43 43 43 42 42 41 40 40 39 38
31 32 33 34 35 36 37 37 37 38 38 38 38 38 38 39 40 40 41 41 42 42 43 43 43 42 43 43 43 43 43 43 42 41 41 41 41 40 39 39 38 37 35
31 32 33 34 35 36 37 37 37 38 38 38 39 39 39 40 40 40 41 41 42 42 42 42 41 41 41 42 42 43 42 41 40 40 40 39 39 38 38 37 36 35 34
33 33 34 35 36 37 37 38 38 38 39 39 39 40 40 40 40 40 40 41 41 41 41 41 41 41 41 41 41 41 40 39 39 39 38 37 37 37 36 35 34 33 32
34 34 35 36 36 37 38 38 38 39 39 39 39 40 40 40 40 40 40 40 40 40 40 40 40 40 40 39 39 38 38 37 37 36 36 35 35 34 33 32 31 31 30
35 36 36 36 37 37 37 37 38 38 38 39 39 39 39 39 39 39 39 39 39 40 39 39 39 38 38 37 36 36 35 34 33 33 32 32 32 31 31 31 30 30 29
37 37 37 37 38 38 37 37 37 38 38 39 39 39 39 39 39 39 39 39 39 38 38 38 37 36 36 35 34 33 32 32 31 31 30 30 29 29 30 30 29 29 29
37 38 38 38 39 39 38 38 38 38 38 38 38 39 39 39 38 38 37 37 37 37 37 36 35 35 34 32 32 31 31 30 30 29 29 28 28 28 28 28 28 29 29
38 38 39 39 39 39 39 39 39 39 38 38 38 37 37 38 37 37 36 36 36 35 35 34 34 33 32 31 30 30 29 28 28 28 27 27 27 26 27 27 28 28 29
37 38 38 38 39 39 39 39 39 39 38 38 38 37 37 37 37 36 35 35 35 34 33 32 31 31 30 29 29 29 28 27 26 26 26 26 26 26 27 27 28 28 29
36 36 36 37 37 37 38 38 38 38 38 38 38 37 37 36 36 36 35 35 34 33 32 31 30 29 29 28 28 27 26 26 25 25 25 25 26 26 27 27 28 29 30
35 36 36 36 36 37 37 37 38 38 38 38 38 37 37 36 36 35 35 34 33 32 31 30 30 29 29 28 28 27 27 26 26 26 26 26 27 27 28 29 30 31 32
Wind_Direction
228 229 231 233 235 237 238 239 240 240 241 242 244 246 247 250 253 256 258 260 261 262 262 263 264 265 267 269 270 272 274 276 278 279 282 285 288 290 290 291 292 293 294
228 229 231 232 234 237 239 242 243 243 244 243 245 247 249 251 254 256 258 260 261 262 262 264 265 266 268 270 271 272 274 276 278 280 281 283 286 288 290 291 291 292 293
228 230 230 232 234 237 240 242 243 245 246 246 247 248 251 252 254 256 257 258 259 261 262 263 265 267 270 273 273 274 275 278 280 281 282 283 284 285 286 287 288 289 290
230 232 233 233 235 237 239 241 243 245 247 248 250 251 252 254 255 257 258 259 260 261 263 265 267 269 271 274 275 275 277 279 281 282 283 284 285 285 285 285 287 287 289
230 232 234 234 235 238 239 241 243 245 247 249 251 252 253 254 255 257 258 260 261 263 265 266 268 271 272 274 276 277 278 280 280 281 282 283 284 285 286 286 287 287 288
229 232 233 234 236 238 240 242 244 246 247 249 251 252 254 255 256 258 259 261 263 265 266 268 270 271 273 275 276 277 279 280 280 280 281 282 284 285 286 286 287 287 288
231 233 236 237 238 240 241 242 244 245 247 249 251 253 254 256 257 258 260 261 263 264 266 268 270 271 273 274 275 276 278 279 280 280 281 282 283 284 285 285 286 286 287
233 236 238 240 240 241 242 244 246 247 248 249 251 253 254 256 257 259 261 262 265 266 268 269 270 272 273 274 275 276 277 278 279 280 280 281 282 283 283 284 285 285 286
235 237 238 239 241 242 244 245 246 248 250 251 252 254 255 257 258 260 262 263 266 267 269 270 271 272 273 274 275 277 278 279 279 280 280 281 282 282 282 283 283 284 285
236 237 238 240 242 243 245 246 248 249 252 253 254 255 256 257 259 260 262 264 266 267 268 268 270 272 274 274 275 276 278 278 279 279 279 280 280 281 281 282 282 283 283
237 239 241 243 244 245 246 247 249 250 252 253 254 255 256 257 259 261 263 264 266 268 268 270 271 272 273 274 275 276 277 278 278 278 278 279 279 279 279 280 281 281 282
236 239 241 243 245 246 246 247 249 250 252 253 254 255 256 257 259 261 262 264 266 267 269 270 272 273 274 274 275 276 277 277 278 278 279 279 279 278 278 279 279 280 280
237 238 240 242 244 245 246 247 249 250 252 253 254 256 257 258 259 260 262 263 265 267 269 270 272 273 274 274 275 276 276 277 277 278 278 278 278 277 277 278 278 278 279
238 238 240 241 243 245 246 248 249 250 252 254 255 256 257 258 260 261 263 263 265 267 269 271 272 273 274 275 276 276 276 276 276 276 276 277 276 276 276 277 277 277 277
241 241 242 243 244 245 247 248 249 250 251 252 254 255 257 258 260 262 263 265 266 267 269 271 273 274 275 276 276 277 276 276 276 276 276 276 276 276 276 276 277 276 276
246 245 245 246 246 247 248 249 250 251 251 252 254 256 258 259 261 263 264 265 266 268 269 271 273 275 276 277 278 278 278 277 276 276 276 276 275 275 275 275 275 274 273
249 249 249 249 248 249 249 250 252 253 254 254 255 257 259 261 262 264 265 265 267 268 270 271 273 275 276 277 278 278 278 277 276 276 276 275 275 274 274 273 272 272 271
252 252 252 252 251 251 251 252 253 254 255 256 256 258 259 261 262 263 264 265 267 268 269 271 273 274 275 277 278 277 277 276 275 275 275 274 273 273 272 271 271 270 270
254 254 254 253 253 253 253 254 254 255 255 256 256 258 259 260 262 263 265 266 267 268 269 271 273 274 275 276 277 276 276 276 274 274 273 273 272 272 271 270 269 270 269
257 256 255 254 254 254 254 255 255 255 255 256 257 258 259 260 262 263 265 266 267 268 269 271 272 274 275 275 275 275 275 275 274 273 272 272 272 271 270 269 269 269 269
259 258 257 256 256 256 255 255 255 255 256 256 257 258 259 260 262 263 265 266 267 268 269 270 271 273 274 274 274 273 273 273 273 272 271 271 271 270 270 269 270 270 270
261 260 259 258 258 257 256 255 256 256 256 256 257 258 259 260 261 263 264 266 267 268 269 269 270 271 272 272 272 271 272 273 272 271 270 270 270 271 270 271 271 272 273
262 261 260 260 259 258 257 256 255 256 256 256 256 257 257 259 261 262 263 265 267 267 268 268 269 270 270 270 270 270 271 270 270 270 270 270 269 270 271 272 273 274 275
264 263 261 260 259 259 258 257 256 255 255 256 256 256 256 258 259 260 262 264 265 266 266 267 267 268 268 268 268 268 268 268 269 270 270 270 270 271 272 273 274 276 278
265 264 262 260 259 259 258 257 256 255 255 255 255 255 256 257 259 260 261 263 264 264 264 264 264 265 266 265 265 266 266 266 268 269 270 271 272 274 274 276 277 279 280
266 265 263 262 260 259 258 257 256 255 255 254 254 254 255 257 258 258 259 261 262 263 262 261 262 263 264 264 264 265 266 267 267 268 269 271 273 274 276 277 279 280 281
Height
5755 5761 5766 5771 5776 5781 5786 5790 5794 5798 5802 5806 5809 5812 5815 5817 5820 5822 5823 5824 5826 5827 5828 5829 5829 5830 5830 5830 5830 5830 5830 5829 5828 5828 5827 5825 5822 5820 5818 5815 5812 5810 5807
5748 5754 5760 5765 5770 5775 5780 5784 5788 5791 5795 5798 5801 5804 5807 5810 5812 5814 5816 5817 5818 5819 5820 5821 5821 5821 5822 5822 5821 5821 5821 5820 5819 5818 5818 5817 5816 5812 5809 5806 5803 5801 5798
5743 5749 5754 5759 5764 5769 5773 5777 5781 5784 5787 5790 5794 5797 5799 5802 5804 5806 5808 5809 5810 5811 5811 5812 5812 5813 5813 5813 5813 5812 5812 5811 5810 5808 5807 5807 5806 5804 5802 5797 5794 5792 5789
5737 5743 5748 5753 5757 5762 5766 5770 5773 5777 5780 5783 5786 5788 5791 5794 5796 5797 5799 5800 5801 5802 5802 5803 5803 5803 5804 5804 5803 5803 5802 5801 5800 5798 5797 5796 5794 5793 5792 5789 5785 5782 5780
5731 5736 5741 5746 5750 5754 5758 5762 5765 5768 5771 5774 5777 5780 5783 5785 5786 5788 5790 5791 5791 5792 5793 5793 5793 5793 5794 5794 5793 5792 5792 5791 5790 5788 5786 5785 5783 5781 5780 5779 5776 5773 5771
5725 5730 5734 5739 5743 5746 5750 5754 5757 5760 5763 5766 5768 5771 5773 5775 5777 5778 5780 5781 5782 5782 5783 5783 5783 5783 5783 5783 5782 5782 5781 5780 5779 5777 5776 5774 5773 5771 5769 5767 5765 5762 5760
5719 5723 5727 5731 5735 5738 5742 5745 5748 5751 5754 5757 5759 5761 5763 5765 5767 5768 5770 5771 5771 5772 5772 5772 5772 5772 5772 5772 5771 5771 5770 5769 5768 5767 5765 5764 5762 5760 5758 5756 5754 5752 5749
5712 5716 5721 5724 5727 5730 5733 5736 5739 5742 5745 5748 5750 5752 5753 5755 5757 5758 5759 5760 5760 5761 5761 5761 5761 5761 5761 5760 5760 5759 5758 5758 5756 5755 5754 5752 5750 5749 5747 5745 5743 5741 5739
5705 5710 5713 5716 5719 5722 5725 5727 5730 5733 5735 5738 5740 5742 5743 5745 5746 5747 5748 5749 5750 5750 5750 5750 5750 5749 5749 5749 5748 5747 5746 5746 5744 5743 5742 5740 5739 5737 5735 5733 5731 5730 5728
5698 5702 5705 5708 5711 5714 5716 5718 5721 5723 5725 5727 5730 5731 5733 5734 5735 5736 5737 5738 5738 5738 5738 5738 5738 5738 5737 5737 5736 5735 5734 5733 5732 5731 5729 5728 5727 5725 5723 5721 5719 5718 5716
5691 5694 5697 5700 5702 5705 5707 5709 5711 5713 5715 5717 5719 5720 5722 5723 5724 5725 5725 5726 5726 5726 5726 5726 5725 5725 5724 5724 5723 5723 5722 5721 5719 5718 5717 5715 5714 5712 5711 5709 5707 5705 5704
5683 5686 5689 5691 5694 5696 5698 5700 5702 5704 5705 5707 5708 5709 5710 5712 5713 5713 5714 5714 5714 5714 5713 5713 5713 5712 5712 5711 5711 5710 5709 5708 5707 5705 5704 5703 5701 5700 5698 5697 5695 5694 5692
5676 5678 5681 5683 5685 5687 5689 5690 5692 5694 5695 5697 5698 5699 5700 5701 5701 5702 5702 5702 5702 5702 5702 5702 5701 5701 5700 5699 5698 5697 5696 5695 5694 5693 5691 5690 5689 5687 5686 5685 5683 5682 5680
5668 5670 5672 5674 5676 5678 5679 5681 5682 5684 5685 5686 5687 5688 5689 5690 5690 5691 5691 5691 5691 5691 5691 5690 5690 5689 5688 5687 5686 5685 5684 5683 5682 5680 5679 5678 5677 5675 5674 5673 5672 5671 5669
5660 5662 5663 5665 5667 5668 5670 5671 5673 5674 5675 5676 5677 5678 5679 5679 5680 5680 5680 5680 5680 5680 5680 5679 5678 5678 5677 5676 5674 5673 5672 5671 5669 5668 5667 5666 5665 5664 5663 5662 5661 5660 5659
5652 5653 5655 5656 5657 5659 5660 5661 5663 5664 5665 5666 5667 5668 5669 5669 5669 5670 5670 5670 5669 5669 5669 5668 5668 5667 5666 5665 5663 5662 5660 5659 5658 5657 5656 5655 5654 5653 5652 5651 5650 5649 5648
5643 5644 5645 5647 5648 5649 5650 5651 5652 5654 5655 5656 5657 5657 5658 5658 5659 5659 5659 5659 5659 5658 5658 5658 5657 5656 5655 5654 5652 5651 5649 5648 5647 5646 5645 5644 5643 5642 5641 5640 5640 5639 5638
5634 5635 5636 5637 5638 5639 5640 5641 5642 5643 5644 5645 5646 5646 5647 5647 5648 5648 5648 5648 5648 5647 5647 5647 5646 5645 5644 5643 5641 5640 5639 5637 5636 5635 5634 5634 5633 5632 5631 5631 5630 5629 5629
5625 5625 5626 5627 5628 5628 5629 5631 5632 5632 5633 5634 5635 5635 5636 5636 5637 5637 5637 5637 5637 5637 5636 5636 5635 5634 5633 5632 5630 5629 5628 5627 5626 5625 5624 5623 5623 5622 5622 5621 5621 5621 5620
5615 5615 5616 5616 5617 5618 5619 5620 5621 5621 5622 5623 5624 5624 5625 5625 5626 5626 5626 5626 5626 5626 5625 5625 5624 5623 5622 5621 5620 5619 5618 5617 5616 5615 5615 5614 5614 5613 5613 5613 5612 5612 5612
5604 5604 5605 5605 5606 5607 5608 5609 5609 5610 5611 5612 5613 5613 5614 5615 5615 5615 5615 5615 5615 5615 5615 5614 5613 5613 5612 5611 5610 5609 5608 5608 5607 5606 5606 5605 5605 5605 5604 5604 5604 5603 5603
5593 5593 5594 5594 5594 5595 5596 5597 5598 5599 5600 5601 5602 5602 5603 5604 5604 5604 5604 5604 5604 5604 5604 5604 5603 5603 5602 5601 5600 5600 5599 5599 5598 5598 5597 5597 5597 5596 5596 5596 5595 5595 5595
5581 5581 5582 5582 5583 5583 5584 5585 5586 5587 5588 5589 5590 5591 5592 5593 5593 5594 5594 5594 5594 5594 5593 5593 5593 5593 5592 5592 5592 5591 5591 5590 5590 5589 5589 5589 5589 5588 5588 5588 5587 5587 5586
5569 5569 5569 5570 5571 5571 5572 5573 5574 5575 5577 5578 5579 5580 5581 5582 5582 5583 5583 5584 5584 5584 5583 5583 5583 5583 5583 5583 5583 5583 5582 5582 5582 5581 5581 5581 5581 5580 5580 5580 5579 5579 5578
5557 5557 5557 5558 5558 5559 5560 5561 5562 5563 5565 5566 5567 5569 5570 5571 5572 5572 5573 5573 5574 5574 5574 5574 5574 5574 5575 5575 5575 5574 5574 5574 5574 5574 5573 5573 5573 5573 5572 5572 5571 5570 5569
5545 5545 5545 5545 5546 5547 5547 5548 5550 5551 5553 5554 5555 5557 5558 5560 5561 5562 5563 5563 5564 5564 5564 5565 5565 5565 5566 5566 5566 5566 5566 5566 5566 5566 5566 5565 5565 5564 5564 5563 5562 5561 5559